This is the latest recevied weather packets stored in our database for station/object KD8BMB. If no packets are shown the sender has not sent any weather packets the latest 10 day(s).
| Time | Temp. | Humidity | Pressure | Rain* | Wind** | Luminosity | Snow |
|---|---|---|---|---|---|---|---|
| 1777550330 | 3.89° C | 94% | 1014.5 hPa | 0 mm | - | 48 W/m² | - |
| 1777550027 | 3.89° C | 94% | 1014.4 hPa | 0 mm | - | 49 W/m² | - |
| 1777549724 | 3.89° C | 94% | 1014.1 hPa | 0 mm | - | 46 W/m² | - |
| 1777549424 | 3.89° C | 94% | 1014.2 hPa | 0 mm | - | 44 W/m² | - |
| 1777549121 | 3.89° C | 94% | 1014.4 hPa | 0 mm | - | 46 W/m² | - |
| 1777548818 | 4.44° C | 93% | 1014.1 hPa | 0 mm | - | 44 W/m² | - |
| 1777548515 | 4.44° C | 95% | 1014.4 hPa | 0 mm | - | 47 W/m² | - |
| 1777548212 | 3.89° C | 96% | 1014.2 hPa | 0 mm | - | 46 W/m² | - |
| 1777547908 | 3.89° C | 96% | 1014.4 hPa | 0 mm | - | 42 W/m² | - |
| 1777547604 | 3.89° C | 97% | 1014.1 hPa | 0 mm | - | 35 W/m² | - |
| 1777547301 | 3.89° C | 97% | 1014.3 hPa | 0 mm | - | 31 W/m² | - |
| 1777546998 | 3.89° C | 97% | 1014.2 hPa | 0 mm | - | 23 W/m² | - |
| 1777546696 | 3.89° C | 97% | 1014.2 hPa | 0 mm | - | 16 W/m² | - |
| 1777546392 | 3.89° C | 96% | 1014.2 hPa | 0 mm | - | 12 W/m² | - |
| 1777546089 | 3.89° C | 96% | 1014.2 hPa | 0 mm | - | 10 W/m² | - |
| 1777545785 | 3.89° C | 97% | 1014.1 hPa | 0 mm | - | 6 W/m² | - |
| 1777545482 | 3.89° C | 97% | 1014.2 hPa | 0 mm | - | 3 W/m² | - |
| 1777545179 | 4.44° C | 98% | 1013.9 hPa | 0 mm | - | 1 W/m² | - |
| 1777544877 | 4.44° C | 98% | 1014 hPa | 0 mm | - | 0 W/m² | - |
| 1777544573 | 4.44° C | 98% | 1014.1 hPa | 0 mm | - | 0 W/m² | - |
| 1777544269 | 4.44° C | 99% | 1013.9 hPa | 0 mm | - | 0 W/m² | - |
| 1777543966 | 4.44° C | 99% | 1013.8 hPa | 0 mm | - | 0 W/m² | - |
| 1777543663 | 4.44° C | 99% | 1013.9 hPa | 0 mm | - | 0 W/m² | - |
| 1777543359 | 4.44° C | 99% | 1013.9 hPa | 0 mm | - | 0 W/m² | - |
| 1777543054 | 4.44° C | 99% | 1013.9 hPa | 0 mm | - | 0 W/m² | - |
* Rain latest hour (hover to see other rain measurements)
** Current wind speed in m/s (hover to see current wind gust speed)